GEFSGL_500_meanwind_228.txt.gz
Wind_Speed
13 13 14 14 14 14 15 14 14 14 14 14 14 14 15 15 15 16 16 16 16 16 17 17 17 17 17 17 17 17 17 17 18 18 19 19 20 20 20 20 21 21 22
14 14 14 14 14 14 15 15 15 15 15 15 15 16 16 17 17 17 17 17 17 17 17 18 17 17 17 17 18 18 18 18 19 19 19 20 21 21 21 21 21 22 22
14 14 15 15 15 15 15 16 16 16 16 17 17 18 17 17 18 17 17 17 17 17 17 17 17 18 18 19 19 19 19 19 19 19 19 20 21 21 22 22 23 23 23
15 15 15 16 16 16 16 17 17 17 18 18 19 19 18 18 18 18 18 19 19 19 18 18 18 18 19 19 19 20 20 20 20 21 21 21 21 22 22 22 22 23 23
16 16 16 16 16 16 17 18 18 19 19 19 19 19 19 18 19 19 20 20 20 20 19 19 19 20 20 20 20 21 21 21 22 23 22 23 23 23 23 23 23 23 24
17 17 17 17 17 17 18 19 19 20 20 20 20 19 19 19 20 20 20 20 20 20 20 20 20 21 21 22 22 22 22 23 23 24 24 24 24 24 24 25 25 25 25
18 19 19 19 19 19 19 20 20 20 21 21 21 20 20 20 20 21 21 21 21 22 22 22 22 22 22 23 23 24 24 24 24 25 25 25 25 26 26 27 26 26 27
20 20 20 20 20 20 21 21 21 22 22 22 22 22 22 22 22 22 22 22 22 23 23 23 23 23 23 24 24 24 25 25 26 26 26 26 26 27 27 27 27 26 27
21 21 21 21 21 21 22 22 23 24 23 23 23 23 24 24 24 24 24 24 24 24 24 24 24 24 25 25 25 25 25 25 26 26 26 27 27 27 28 28 28 28 28
22 22 22 22 23 23 23 23 24 23 24 24 24 24 24 24 25 25 25 25 25 24 25 25 25 25 26 26 26 25 26 27 27 27 27 27 27 27 28 28 29 30 30
23 23 23 23 23 24 24 25 24 24 24 24 24 25 25 26 26 26 26 26 26 26 25 25 25 26 27 27 27 27 28 28 28 28 27 27 28 28 28 29 30 30 30
25 24 25 24 24 25 25 25 25 25 25 25 25 26 26 27 27 27 27 27 27 27 26 26 26 27 27 28 28 28 29 29 29 28 28 28 28 28 29 29 30 30 31
26 25 25 26 26 26 26 25 25 25 26 26 26 26 27 27 27 27 27 28 28 27 27 27 27 28 28 28 28 29 29 29 29 29 29 29 29 29 29 29 29 30 31
27 27 26 27 27 27 27 26 26 26 26 26 27 27 27 27 26 26 27 27 27 27 27 28 28 28 29 29 29 29 29 29 29 30 31 31 30 30 30 30 30 31 31
28 28 28 28 28 27 27 27 27 27 27 27 27 27 28 27 27 27 27 27 27 28 28 28 28 28 29 29 29 29 29 30 31 31 32 31 31 31 31 31 31 32 33
28 28 28 28 28 28 28 28 28 29 29 29 29 28 28 28 28 28 27 27 27 28 28 28 28 28 29 30 30 30 30 31 32 32 32 31 32 32 31 31 32 32 33
29 29 28 29 28 28 28 28 29 29 30 30 30 30 30 29 29 29 28 28 28 28 29 29 29 29 30 30 31 31 31 31 31 32 32 32 32 32 32 32 32 33 33
30 29 29 29 29 29 30 30 30 30 30 30 30 30 30 29 29 29 29 29 28 29 29 29 30 30 31 31 31 31 31 32 32 32 32 32 32 32 32 33 33 33 33
31 31 31 30 29 30 30 30 31 31 31 30 30 30 30 29 29 29 29 29 29 29 30 31 31 31 31 31 32 32 32 32 32 31 32 32 32 32 32 32 32 32 32
31 31 32 31 30 31 31 31 31 31 31 30 30 30 30 30 30 30 30 30 30 30 31 31 31 31 31 30 31 31 32 32 31 31 31 31 31 31 31 31 31 31 32
30 31 31 32 31 31 31 31 31 31 31 31 30 30 29 29 29 29 29 30 31 31 32 31 31 31 31 31 31 31 32 31 31 31 31 31 31 31 30 31 31 32 32
31 31 31 31 32 31 31 31 31 31 31 31 30 30 29 29 29 29 29 31 31 31 31 30 30 30 31 31 31 31 31 31 30 30 30 30 30 31 31 31 31 31 32
32 32 32 32 31 31 31 31 32 31 31 31 30 30 30 29 29 29 30 31 31 31 30 30 30 30 30 31 31 30 30 29 29 29 29 29 30 30 30 30 31 32 32
33 33 33 33 32 31 30 31 31 31 31 31 30 30 30 30 30 30 30 30 30 31 31 30 30 30 30 30 31 31 30 30 30 30 30 30 30 30 30 31 32 33 33
34 34 34 34 33 32 32 32 31 31 31 31 30 30 30 30 30 30 30 30 30 30 30 30 30 30 30 31 31 32 31 31 31 31 31 31 31 31 32 33 33 33 34
34 34 35 34 33 33 32 32 32 33 32 31 30 30 29 29 29 29 29 29 29 29 30 31 31 31 32 32 32 32 32 31 32 32 32 32 32 33 33 34 34 34 34

GEFSGL_500_meanwind_234.txt.gz
Wind_Speed
10 10 11 11 12 12 12 13 13 13 14 14 15 15 14 15 15 16 16 16 16 16 17 16 16 16 17 17 17 17 17 17 17 17 18 18 19 19 18 18 19 19 19
12 12 12 12 12 13 13 13 14 14 14 15 15 16 16 16 17 17 17 17 17 17 17 17 17 17 17 17 18 18 18 17 18 18 18 19 19 20 20 19 19 19 20
12 13 13 13 14 14 14 14 14 14 15 16 16 17 17 17 18 18 17 17 18 18 18 18 18 18 18 18 18 18 18 19 19 19 19 19 20 20 21 21 20 20 21
13 13 14 14 14 14 14 15 16 16 16 17 17 18 18 18 18 18 18 18 18 19 18 19 19 19 19 19 19 19 19 19 20 20 20 20 19 20 20 21 21 21 22
14 15 15 14 15 15 15 16 17 17 18 18 19 19 19 19 18 19 19 19 19 19 19 19 20 20 20 20 20 20 20 20 21 20 20 20 20 20 21 22 22 22 22
16 16 16 16 16 16 17 17 18 19 19 19 20 20 21 21 21 20 20 20 20 20 20 20 20 20 21 21 21 20 20 20 21 21 21 22 22 22 22 23 24 24 24
17 18 18 18 18 18 18 19 20 20 20 20 20 21 21 21 21 21 21 21 21 21 21 21 21 21 21 21 21 21 21 21 21 22 22 22 23 24 24 25 25 25 25
19 20 20 20 20 20 20 20 21 21 21 21 21 22 22 22 22 22 22 22 22 22 22 22 22 21 21 22 22 22 22 22 23 23 23 24 24 25 26 26 26 26 26
21 21 21 21 21 22 22 22 22 22 22 22 22 23 22 22 23 22 22 22 23 23 23 23 23 22 23 23 23 23 23 24 24 24 25 25 26 26 27 27 27 27 27
23 22 22 23 23 23 23 23 23 23 23 24 24 24 24 23 23 23 24 24 24 24 23 23 23 23 23 24 24 24 24 24 25 25 26 27 28 28 28 28 28 28 28
25 24 25 25 25 24 24 25 25 25 25 25 26 25 25 25 24 24 25 25 24 24 24 24 23 23 24 24 25 25 25 25 26 26 27 27 28 28 29 29 29 29 30
26 26 26 26 25 26 26 26 26 26 26 27 27 26 26 26 26 26 26 26 25 25 24 25 25 25 25 25 25 26 26 27 27 27 27 28 29 29 29 30 31 31 31
27 27 27 27 27 27 27 27 28 28 27 27 27 27 27 26 26 26 26 26 26 26 25 26 26 26 25 25 26 26 27 27 27 27 27 28 29 30 31 31 31 31 31
27 27 27 27 28 28 29 29 29 29 28 28 27 27 28 28 27 27 27 27 27 27 27 26 26 26 26 26 26 27 27 27 27 28 29 29 29 30 31 31 30 31 31
28 28 28 28 29 29 29 29 29 29 28 28 28 28 28 28 28 28 28 28 28 27 27 27 27 27 27 27 27 28 28 27 28 28 28 29 30 30 30 30 30 30 31
29 29 29 29 30 30 30 30 30 30 29 29 29 29 28 28 29 28 28 28 28 28 28 28 28 28 28 28 28 28 28 28 28 28 29 29 30 30 30 30 30 30 30
30 30 30 30 30 30 30 30 30 30 31 30 30 29 29 28 28 29 28 28 28 28 29 29 29 29 29 29 29 29 28 28 28 29 29 29 29 30 30 30 30 30 30
30 30 30 30 31 31 31 31 31 31 31 30 30 30 29 29 29 29 29 28 28 29 29 29 29 29 29 28 28 29 29 28 29 29 29 29 29 30 30 30 30 30 30
31 31 30 31 31 32 32 32 32 32 31 31 31 30 30 29 29 29 29 29 29 29 29 29 29 29 29 29 29 30 29 29 29 30 30 30 30 30 31 31 30 31 31
31 31 31 31 32 32 32 33 33 32 32 32 31 31 30 29 29 29 29 30 30 30 30 30 30 30 30 30 30 29 29 29 29 30 30 30 30 31 31 31 30 31 31
31 32 32 32 33 33 33 33 32 32 32 31 31 30 30 30 30 30 31 31 31 31 30 30 30 31 30 29 29 29 29 29 30 30 30 30 31 31 31 31 31 31 31
32 32 33 33 33 33 33 32 32 32 32 32 32 31 31 30 30 30 31 31 31 31 31 31 30 30 29 29 29 29 29 30 30 30 30 30 30 30 31 31 32 32 32
32 33 33 33 33 33 32 32 32 32 32 32 31 31 31 31 30 30 30 30 30 30 30 30 29 30 29 30 30 30 30 29 29 30 30 30 31 31 31 32 32 32 32
32 32 32 32 33 33 33 32 32 32 32 32 31 31 31 31 31 31 30 30 31 31 30 30 29 29 30 30 30 30 30 30 30 30 31 31 31 32 32 32 32 32 33
32 32 33 33 33 33 33 32 32 32 33 32 32 32 32 32 31 30 30 30 30 30 30 29 29 30 30 31 31 31 31 32 32 32 32 32 32 32 32 32 33 33 33
33 33 33 33 33 33 33 33 32 32 33 32 32 33 33 32 31 31 30 30 30 29 30 30 30 30 31 32 32 32 31 31 31 32 32 32 32 32 32 33 33 33 33

GEFSGL_500_meanwind_240.txt.gz
Wind_Speed
10 11 11 12 13 13 13 13 14 14 14 14 15 15 15 16 16 16 17 17 17 18 17 17 17 16 16 17 17 17 18 18 18 18 18 19 19 19 19 19 19 19 19
11 12 12 13 14 14 15 15 15 15 15 15 15 16 17 17 17 18 18 18 17 17 17 17 18 17 17 18 18 19 19 19 19 19 20 20 20 20 20 20 19 19 20
13 13 14 15 15 15 16 16 16 16 16 16 17 18 18 19 19 18 18 17 17 18 18 18 18 18 18 19 20 20 20 20 21 21 20 21 21 21 21 21 21 21 21
15 15 16 16 17 17 17 17 17 18 18 19 19 19 20 20 19 19 19 18 18 19 18 18 19 19 20 20 21 21 21 21 21 21 21 21 21 22 22 22 22 22 23
16 17 17 18 18 18 18 18 18 19 20 20 20 20 20 20 20 20 20 20 20 20 20 20 21 21 22 22 22 22 22 21 21 21 21 21 21 22 23 23 23 24 24
18 18 19 19 20 20 20 19 20 20 21 21 21 21 21 21 21 21 21 21 21 21 21 21 22 22 22 22 22 22 22 21 21 21 21 21 22 22 23 23 24 23 23
20 20 20 21 21 22 22 21 21 21 21 22 22 22 22 22 22 22 22 22 22 22 22 22 22 22 22 21 21 21 21 21 21 21 22 23 23 23 24 24 24 24 24
22 23 23 23 23 23 23 23 23 23 23 23 23 23 23 23 23 23 23 23 23 23 22 22 22 22 22 22 22 22 22 22 23 23 24 25 25 25 25 25 25 26 26
23 24 24 25 25 25 25 25 25 25 25 25 25 25 25 25 24 24 24 25 24 24 23 23 23 23 23 24 24 24 24 24 25 25 25 25 26 26 26 26 26 27 27
24 25 25 25 25 25 25 26 26 26 26 26 26 26 25 25 25 25 25 25 25 25 24 23 24 25 25 25 25 25 25 25 26 26 26 26 26 27 28 28 28 29 29
27 26 27 27 27 26 26 27 27 27 27 27 27 27 27 27 27 27 26 27 26 26 25 25 25 26 26 26 26 26 26 27 27 27 27 27 27 28 29 29 30 30 30
29 28 28 28 28 28 28 28 28 28 28 29 29 28 28 28 28 28 28 27 27 27 27 27 27 27 27 27 27 27 28 28 28 28 28 28 28 28 29 29 30 30 30
29 29 29 29 29 29 29 29 29 29 30 30 30 29 29 30 30 30 29 28 28 28 28 29 29 28 28 28 28 28 29 29 29 29 28 28 28 28 29 30 30 30 30
30 30 30 30 30 30 30 30 31 31 31 31 31 30 30 31 31 31 30 30 30 30 29 29 29 29 29 29 29 29 30 30 30 29 29 28 28 28 29 29 30 30 30
32 31 31 31 31 31 31 32 32 32 32 31 31 31 32 31 31 31 32 31 31 30 30 29 29 29 29 30 30 30 30 30 30 30 29 28 28 29 29 30 30 30 29
33 32 32 32 31 31 32 32 32 32 32 32 32 32 32 32 32 32 33 33 32 31 30 30 30 30 30 30 30 30 31 31 31 30 30 29 28 29 29 30 30 30 29
33 33 33 32 32 32 32 32 32 32 32 32 32 33 33 33 33 33 33 33 32 31 31 31 31 31 31 30 30 30 30 30 29 29 29 29 29 29 30 30 30 30 30
34 34 34 34 33 33 32 32 33 33 33 33 32 33 33 33 33 33 33 33 32 32 32 32 32 32 31 31 31 31 30 30 30 29 29 29 29 30 30 30 30 31 31
34 35 34 34 34 33 33 33 34 34 34 33 33 33 33 34 34 34 34 33 33 33 32 32 32 32 32 32 32 32 31 31 31 30 30 30 30 30 30 30 31 31 31
34 34 34 33 33 33 34 34 35 35 35 34 34 33 34 34 34 34 34 34 34 33 33 32 32 32 32 33 32 33 32 32 31 30 30 31 31 31 31 32 31 31 31
33 33 33 33 33 34 33 34 34 35 35 34 34 34 34 34 33 33 33 34 33 33 33 33 33 32 33 32 33 33 33 32 31 31 31 31 31 31 32 32 31 32 32
32 32 33 33 33 34 34 34 34 34 34 35 34 34 35 34 34 33 33 33 33 33 33 33 33 33 33 33 33 33 33 31 31 31 31 31 31 31 32 32 31 31 32
33 33 33 33 33 34 34 34 34 34 35 35 35 35 34 34 34 34 33 33 33 33 33 34 34 34 34 34 34 34 32 31 30 31 31 31 31 31 31 31 31 31 32
33 34 34 34 34 34 34 34 34 35 35 35 34 34 33 33 33 33 33 33 33 33 34 34 33 33 33 34 33 32 32 31 31 31 31 31 32 32 31 31 31 31 31
34 35 35 36 36 36 36 35 35 35 35 34 34 34 33 33 33 33 33 33 34 34 35 34 33 32 32 32 31 31 31 31 31 31 31 31 31 31 31 31 31 30 30
35 35 36 37 37 36 36 36 35 35 35 35 35 35 34 34 34 33 33 33 33 34 34 34 33 33 32 31 31 31 32 32 31 31 32 32 32 32 32 32 32 31 31

GEFSGL_500_meanwind_246.txt.gz
Wind_Speed
12 13 13 14 14 14 14 14 14 15 15 15 15 15 15 16 16 16 17 17 16 16 16 16 16 16 17 17 17 17 17 17 17 18 18 19 19 19 19 20 20 20 20
14 14 14 15 15 15 15 15 15 16 16 17 17 16 16 16 17 17 17 17 16 16 17 17 17 17 17 18 18 18 18 18 19 19 20 20 20 21 21 21 21 21 21
15 15 16 16 17 17 17 17 17 17 17 18 18 17 17 18 18 18 18 17 17 17 17 17 18 18 18 18 19 19 19 20 20 20 20 20 20 20 21 21 21 22 22
16 17 17 17 18 18 18 18 18 18 18 18 19 19 19 19 19 19 18 18 18 19 19 19 19 20 20 20 20 21 21 21 21 20 20 20 20 20 21 22 22 22 22
19 19 19 19 19 19 20 20 19 19 19 20 20 20 20 20 19 19 19 19 20 20 21 21 20 21 21 21 21 21 21 21 21 21 21 21 21 21 22 23 23 23 23
21 21 21 21 21 21 21 21 21 21 21 22 22 21 20 20 20 20 20 20 21 21 21 22 22 22 22 22 22 21 21 21 22 22 22 23 23 23 23 24 24 24 24
23 22 22 23 23 23 23 22 22 22 22 23 23 22 22 22 22 22 22 22 22 22 22 22 23 24 23 23 22 22 22 23 23 23 24 24 25 25 25 25 25 25 25
24 24 24 24 24 24 24 24 24 24 23 24 24 24 24 24 24 24 24 24 23 23 24 24 24 24 24 23 23 23 23 23 24 24 25 25 26 27 27 27 27 26 27
25 25 26 26 25 25 26 25 25 24 25 25 25 26 26 25 26 26 26 25 25 25 25 26 26 25 25 25 25 25 24 25 25 25 26 27 27 28 28 28 27 28 28
26 26 26 26 26 26 25 25 25 26 26 26 26 27 27 27 26 27 27 27 27 27 27 27 27 27 26 26 26 26 26 27 27 27 28 28 28 27 27 27 27 28 28
27 27 27 27 27 27 26 27 27 28 28 28 28 28 28 28 28 28 28 28 28 29 29 28 28 28 28 28 28 27 28 28 29 29 29 28 27 27 27 27 27 28 29
28 28 29 29 29 28 28 29 29 30 30 30 29 29 29 29 29 29 30 30 30 30 29 29 28 28 29 29 30 30 29 30 30 29 29 28 28 28 28 29 29 29 29
30 30 30 30 30 30 31 31 31 31 31 31 31 30 30 30 31 30 30 30 30 30 30 30 30 30 30 30 30 31 31 30 29 29 29 30 29 29 30 30 30 30 31
32 32 31 31 31 31 31 32 32 32 32 32 32 32 32 31 32 32 31 31 31 31 31 31 32 31 31 31 31 30 29 29 29 29 30 30 30 30 31 31 31 31 31
34 33 32 32 32 32 32 33 33 33 34 34 33 32 32 32 32 32 31 31 32 32 32 32 32 32 32 30 30 29 29 29 29 29 30 31 31 31 31 31 32 32 32
33 33 34 33 33 33 34 34 34 34 34 34 34 33 33 32 33 32 32 32 33 33 33 33 33 33 32 30 29 29 30 30 30 30 30 30 31 31 31 31 32 32 32
34 35 35 35 35 35 35 35 35 35 34 34 34 33 33 33 33 33 33 32 33 33 33 33 33 33 32 31 30 30 30 30 30 30 31 31 31 31 31 31 31 32 32
36 36 37 36 36 36 36 36 35 35 34 33 33 33 33 34 34 34 33 33 33 34 34 34 34 33 32 32 32 31 31 32 32 32 32 31 31 31 31 31 31 31 32
37 37 37 37 37 36 36 36 35 35 34 34 34 33 33 34 34 34 35 35 34 34 34 34 34 33 33 33 33 32 32 32 33 32 32 32 32 32 32 32 32 32 32
36 36 36 36 35 35 35 35 34 34 34 34 34 34 34 34 34 34 34 35 35 35 34 34 33 33 33 33 33 33 32 32 33 33 33 33 33 33 33 33 32 32 33
35 36 36 36 35 34 34 33 33 33 33 33 34 34 34 34 34 34 34 34 34 34 34 34 33 33 33 34 34 34 33 32 33 34 33 33 33 33 33 33 33 33 33
34 34 34 33 33 33 33 33 33 33 33 33 32 33 33 33 33 33 33 33 33 33 34 34 34 34 34 34 34 34 34 34 34 34 33 34 34 34 34 34 34 34 33
34 34 34 34 33 33 33 33 34 33 33 32 32 32 32 32 32 33 33 33 33 33 34 34 34 35 34 34 35 35 35 35 35 35 35 35 35 35 35 34 33 33 33
33 33 33 33 33 33 33 33 34 34 33 33 32 32 32 32 32 33 34 34 34 34 35 34 34 35 35 36 35 35 36 35 35 35 35 35 35 35 34 33 33 32 32
32 32 33 33 34 34 34 34 34 34 34 34 33 33 33 33 33 33 33 34 34 34 34 34 34 35 35 36 36 36 35 35 35 35 35 35 35 35 34 33 33 33 32
34 34 34 35 35 34 34 35 34 34 34 34 34 34 34 34 34 33 33 34 34 35 34 34 34 34 34 35 36 36 36 36 37 37 36 36 36 35 35 35 34 33 33

GEFSGL_500_meanwind_252.txt.gz
Wind_Speed
16 16 16 16 16 17 17 17 17 17 17 17 18 18 18 18 17 17 17 17 17 17 17 17 17 17 18 18 18 18 19 18 18 18 18 18 18 19 18 18 18 18 19
18 18 18 18 17 17 17 17 18 18 18 18 18 18 18 18 19 19 19 18 17 17 17 17 17 18 18 19 19 20 20 20 20 19 19 19 19 19 19 19 19 19 20
19 19 19 19 18 19 19 19 19 19 19 19 20 20 19 19 20 20 20 19 18 17 17 18 19 19 19 19 20 21 21 21 21 21 21 20 20 20 20 20 20 20 21
20 20 20 21 21 21 20 20 20 20 20 20 21 21 21 21 21 20 20 19 18 18 18 19 20 20 20 21 21 21 22 22 22 22 21 21 21 21 21 21 21 22 22
20 20 21 21 22 22 22 22 22 21 22 22 22 22 22 22 21 20 20 19 19 20 20 20 20 21 21 21 21 22 22 23 23 23 23 22 22 22 23 22 22 23 23
23 22 22 22 22 22 22 23 23 23 23 23 23 23 23 22 21 21 21 21 21 21 22 21 21 21 22 23 23 24 24 24 24 24 24 24 24 24 24 24 24 24 24
23 23 24 24 24 24 24 24 24 24 24 24 24 24 24 23 23 22 22 22 22 22 23 23 23 23 23 24 25 25 25 26 26 26 25 26 26 26 26 26 25 25 25
25 25 25 25 26 26 26 25 25 26 26 26 25 25 25 24 24 24 24 25 24 24 24 24 25 26 26 26 26 26 27 26 26 27 27 27 27 27 27 26 26 26 25
27 27 27 27 27 27 27 27 27 27 27 27 27 27 26 26 26 26 27 27 26 26 26 26 27 27 28 27 27 27 27 27 28 28 28 28 27 27 27 27 26 26 26
27 28 28 28 29 29 29 28 28 28 28 28 28 28 27 27 27 28 28 28 28 28 28 28 28 29 29 29 29 28 28 28 28 28 28 27 28 28 28 28 28 28 28
28 29 29 30 29 29 29 29 29 30 30 30 29 29 29 29 29 29 30 30 30 29 29 29 30 30 29 30 30 29 29 29 29 29 29 28 29 29 29 29 29 29 29
30 30 30 30 30 30 30 31 31 31 31 31 31 31 31 30 31 31 32 32 31 31 31 31 30 31 30 31 30 30 30 29 29 30 29 29 29 29 29 29 29 29 29
31 32 32 31 31 32 32 32 32 33 33 33 32 32 32 31 31 32 32 32 32 32 31 31 31 31 31 32 31 31 30 29 29 30 29 29 29 30 30 29 29 29 30
33 33 33 33 33 33 33 33 33 33 34 34 34 34 33 33 33 33 33 33 33 32 32 32 32 32 32 32 32 32 32 31 30 30 29 29 30 29 29 29 29 30 30
34 35 35 35 35 35 35 34 34 35 35 34 34 34 34 34 34 34 35 34 34 34 34 33 32 32 32 32 32 32 33 32 31 30 30 30 30 30 30 30 31 30 30
36 36 37 37 37 37 36 36 36 36 35 35 35 35 35 36 36 36 35 35 35 35 34 34 33 33 33 33 33 33 32 32 32 31 31 31 31 30 30 31 31 31 31
38 38 38 39 39 38 38 37 37 36 36 36 37 37 37 37 36 36 36 36 35 35 34 34 34 33 33 34 34 33 33 33 33 33 32 32 31 31 31 31 31 31 31
37 38 38 38 38 38 38 37 37 36 36 36 36 37 37 36 36 35 36 36 35 35 35 34 34 34 34 34 34 35 35 35 35 34 34 33 32 32 32 32 32 32 32
38 38 38 38 38 37 37 37 37 36 36 36 36 36 36 36 35 35 35 35 35 35 35 34 34 34 34 34 35 35 36 36 35 35 34 34 33 33 33 33 33 33 34
38 38 38 38 37 37 36 36 36 36 36 36 35 35 36 36 35 35 35 35 34 34 34 34 34 34 34 35 35 36 36 36 36 36 35 35 35 34 34 34 35 35 35
37 37 37 37 37 37 37 37 36 36 36 36 35 35 36 36 35 34 34 34 34 34 34 34 34 34 35 36 36 36 36 36 37 37 37 36 36 36 36 36 36 36 36
36 37 37 37 37 37 37 36 36 36 36 36 35 35 35 35 34 34 34 34 34 34 34 35 36 36 36 37 37 37 37 37 37 37 38 38 38 37 37 37 37 36 36
36 36 36 36 37 36 36 36 36 36 36 37 37 36 35 35 35 34 35 35 35 35 35 36 36 36 37 37 37 38 38 37 37 38 38 38 37 37 37 37 36 36 36
35 35 36 36 36 36 35 35 36 36 36 36 36 35 35 35 35 35 35 35 36 36 36 36 36 36 36 37 37 37 37 37 37 37 37 37 36 36 37 37 36 36 35
36 36 36 36 36 35 35 35 35 35 35 35 35 35 35 35 35 35 35 35 36 36 37 37 37 36 36 36 37 37 37 37 37 37 37 36 36 35 35 36 35 34 34
37 37 36 36 35 35 35 34 34 34 35 35 35 35 35 36 36 35 35 35 36 36 36 36 36 36 36 36 36 37 37 37 36 36 36 35 35 34 34 34 34 34 34

GEFSGL_500_meanwind_258.txt.gz
Wind_Speed
15 15 15 16 16 16 16 16 16 16 16 16 16 17 17 17 17 17 17 17 17 17 17 16 17 17 16 17 16 16 16 16 16 16 16 16 17 17 17 18 18 18 19
17 16 16 16 17 17 17 16 16 17 17 17 17 18 18 18 18 18 19 19 19 18 18 17 17 17 17 17 17 17 17 17 17 18 18 17 18 18 19 18 19 19 20
18 18 18 17 17 18 17 16 16 16 17 18 18 18 18 19 19 20 20 20 20 20 20 20 19 19 19 19 18 18 18 18 19 19 19 19 19 19 19 20 20 21 21
19 19 19 19 19 19 19 18 18 18 18 18 19 20 20 21 21 21 21 20 20 21 21 21 21 21 20 20 20 19 20 20 20 21 21 21 21 21 21 21 22 22 22
20 20 20 20 20 20 20 20 20 20 20 20 20 21 22 22 21 20 20 21 21 21 22 22 22 22 22 22 22 21 21 21 21 21 21 22 22 22 22 23 23 23 23
20 20 21 21 20 20 20 20 21 22 21 21 21 22 22 22 22 22 22 22 22 22 22 22 22 23 23 22 23 23 23 22 22 22 22 23 22 23 23 23 24 24 24
22 21 21 22 22 22 22 21 22 22 22 23 23 23 23 24 24 24 24 24 24 23 23 23 24 24 23 23 24 24 23 23 23 23 24 23 24 23 23 23 24 24 24
24 23 23 23 23 23 23 23 24 24 24 24 25 25 25 25 25 25 26 26 25 25 25 25 25 25 25 25 25 25 25 25 24 24 24 24 24 24 24 24 25 25 25
25 25 25 25 25 25 25 25 25 25 26 26 25 26 26 26 26 27 27 27 27 27 27 27 27 27 26 26 26 26 26 26 26 26 25 25 25 26 26 26 26 26 27
25 26 26 26 27 26 26 26 27 27 27 26 27 27 27 28 28 28 28 28 28 29 29 29 28 28 28 28 28 27 27 27 28 28 27 27 26 27 27 27 28 28 28
26 27 27 28 28 28 28 28 28 29 28 28 28 28 28 28 28 29 28 28 29 30 30 30 30 29 29 29 29 29 28 29 29 29 29 28 28 28 29 29 29 30 29
27 28 28 28 28 28 28 29 30 30 30 30 30 29 30 30 30 30 30 30 30 31 31 31 31 31 30 30 31 30 30 30 30 30 31 30 30 30 30 30 30 31 30
29 29 29 29 29 29 29 30 31 31 31 31 31 31 31 31 31 31 31 32 32 32 33 33 33 32 32 33 33 32 32 32 32 32 32 32 32 31 31 31 32 32 31
30 30 30 30 30 30 31 32 32 31 32 32 32 32 32 33 33 34 34 34 34 34 34 34 34 34 34 35 35 34 34 34 34 34 34 33 33 33 32 32 33 33 32
31 31 31 32 32 32 32 33 33 33 34 34 35 35 34 35 36 36 36 36 36 36 36 36 36 35 35 35 35 35 34 34 35 35 35 34 34 34 33 33 34 34 33
32 32 33 33 33 33 34 34 34 34 35 36 36 36 36 37 37 37 37 37 37 37 36 36 36 36 36 36 36 35 35 35 35 34 34 34 34 34 34 34 34 34 34
33 33 34 35 35 35 35 35 35 35 36 36 37 37 37 37 37 37 37 36 36 36 36 35 35 36 36 36 36 36 36 35 35 34 34 35 35 35 35 35 35 34 34
34 35 35 36 36 36 36 35 35 35 36 36 37 36 36 36 37 37 37 36 36 36 36 36 36 36 37 37 37 37 36 36 36 35 36 36 36 36 36 36 35 35 35
35 35 36 36 36 36 36 36 36 36 36 36 35 36 36 36 36 36 37 37 36 36 37 36 37 37 37 37 37 37 37 37 36 36 37 37 37 37 37 37 37 37 36
35 36 36 36 36 36 36 36 36 36 36 36 35 35 35 35 35 36 36 36 36 36 37 37 37 38 38 38 38 38 38 38 37 38 38 38 37 37 37 37 38 37 37
36 36 37 37 38 38 38 37 37 37 36 36 36 36 36 36 36 36 36 36 36 37 37 38 38 38 39 39 39 38 38 38 38 38 38 37 37 37 37 38 38 38 37
37 38 38 39 39 38 38 37 37 37 37 37 37 37 37 37 36 36 36 36 36 37 37 38 38 38 38 38 38 38 38 38 38 38 38 38 37 38 37 37 37 37 37
38 39 40 40 40 39 39 38 38 38 38 38 38 37 37 37 37 37 37 37 37 37 38 37 37 36 36 37 38 38 38 38 38 38 38 38 38 38 38 38 37 37 37
39 40 40 40 40 39 39 39 38 38 38 38 37 37 37 37 37 37 37 38 38 37 37 37 36 36 37 37 37 38 38 38 37 37 38 37 37 37 37 37 37 37 37
39 39 40 40 39 38 38 38 38 38 38 37 37 37 37 37 37 37 37 37 37 37 36 36 36 36 36 36 37 37 37 37 37 37 37 37 37 37 37 37 36 36 37
39 39 39 39 38 38 38 37 37 37 37 37 37 36 36 37 37 37 37 37 37 36 35 34 35 35 35 35 36 37 37 36 36 36 36 37 37 38 37 37 36 36 36